Погода в Эртиле

Россия / Воронежская область     51°50′08″N   40°47′57″E
темп.,
°C
ветер,
м/с
пор.,
м/с
влажн.,
%
обл.,
%
осадки,
мм/ч
давл.,
гПа
погр.,
м
26 июля, пн
пн2600:00+18в335315 0.0 102261
03:00+18юв1153100 0.0 102314
06:00+18в115793 0.0 102311
09:00+23в22465 0.0 1023516
12:00+26св11354 0.0 10242165
15:00+27ссв113315 0.0 10222351
18:00+26вюв11376 0.0 10221798
21:00+22юв334630 0.0 102238
27 июля, вт
вт2700:00+21ююв224797 0.0 102221
03:00+18ююз22551 0.0 102315
06:00+18ююз22575 0.0 102334
09:00+24зюз23427 0.0 1022464
12:00+28з33355 0.0 10212179
15:00+28зсз233318 0.0 10202450
18:00+27ссв334291 0.0 1019391
21:00+21всв235932 0.1 101922
28 июля, ср
ср2800:00+19ююв116620 0.1 101911
03:00+18зсз11675 0.1 101811
06:00+19ссз22715 0.0 101858
09:00+25зсз115271 0.0 1018474
12:00+29зюз23375 0.0 10171872
15:00+30ююз2431100 0.0 10152539
18:00+29ю244198 0.0 1014170
21:00+21св61063100 0.0 1014252
29 июля, чт
чт2900:00+21вюв4859100 0.0 1013186
03:00+21ююз2361100 0.1 101254
06:00+20зюз366792 0.2 1011119
09:00+25зюз57550 0.4 1010793
12:00+29зюз67458 0.0 10091748
15:00+31з583418 0.0 10082851
18:00+30з463730 0.0 1007683
21:00+24с2251100 0.0 100816
30 июля, пт
пт3000:00+22ююв226066 0.4 100817
03:00+21юз2368100 0.5 100747
06:00+20зюз378599 0.1 1008219
09:00+24з236898 0.4 1008690
12:00+29з355145 0.0 10081657
15:00+27зсз2258100 0.4 100755
18:00+28сз3456100 0.0 1007475
21:00+25ссв2363100 0.0 100847